This is the latest recevied weather packets stored in our database for station/object N2OCK. If no packets are shown the sender has not sent any weather packets the latest 1 day(s).
| Time | Temp. | Humidity | Pressure | Rain* | Wind** | Luminosity | Snow |
|---|---|---|---|---|---|---|---|
| 1777977572 | 11.67° C | 96% | 1011.6 hPa | 0 mm | 0 m/s | 39 W/m² | - |
| 1777977265 | 11.67° C | 96% | 1011.4 hPa | 0 mm | 0.45 m/s, 210° | 33 W/m² | - |
| 1777976961 | 11.67° C | 97% | 1011.3 hPa | 0 mm | 0.89 m/s, 225° | 34 W/m² | - |
| 1777976658 | 11.67° C | 97% | 1011.1 hPa | 0 mm | 0.89 m/s, 184° | 31 W/m² | - |
| 1777976355 | 11.11° C | 97% | 1010.9 hPa | 0 mm | 0 m/s | 30 W/m² | - |
| 1777976059 | 11.11° C | 97% | 1011.1 hPa | 0 mm | 0 m/s | 22 W/m² | - |
| 1777975751 | 11.11° C | 97% | 1010.9 hPa | 0 mm | 0 m/s | 14 W/m² | - |
| 1777975447 | 11.11° C | 97% | 1010.8 hPa | 0 mm | 0.45 m/s, 213° | 9 W/m² | - |
| 1777975143 | 11.11° C | 97% | 1010.7 hPa | 0 mm | 0 m/s | 7 W/m² | - |
| 1777974840 | 11.11° C | 97% | 1010.7 hPa | 0 mm | 0 m/s | 5 W/m² | - |
| 1777974536 | 11.11° C | 96% | 1010.8 hPa | 0 mm | 0 m/s | 3 W/m² | - |
| 1777974234 | 11.11° C | 96% | 1010.7 hPa | 0 mm | 0 m/s | 2 W/m² | - |
| 1777973929 | 11.11° C | 96% | 1010.5 hPa | 0 mm | 0 m/s | 1 W/m² | - |
| 1777973627 | 11.11° C | 96% | 1010.9 hPa | 0 mm | 0 m/s | 0 W/m² | - |
| 1777973324 | 11.11° C | 96% | 1010.8 hPa | 0 mm | 0 m/s | 0 W/m² | - |
| 1777973022 | 11.67° C | 96% | 1010.7 hPa | 0 mm | 0 m/s | 0 W/m² | - |
| 1777972719 | 11.67° C | 96% | 1010.8 hPa | 0 mm | 0 m/s | 0 W/m² | - |
| 1777972417 | 11.11° C | 96% | 1010.7 hPa | 0 mm | 0 m/s | 0 W/m² | - |
| 1777972115 | 11.67° C | 95% | 1010.7 hPa | 0 mm | 0.45 m/s, 234° | 0 W/m² | - |
| 1777971813 | 11.67° C | 95% | 1010.7 hPa | 0 mm | 0 m/s | 0 W/m² | - |
| 1777971510 | 11.67° C | 95% | 1010.9 hPa | 0 mm | 0.45 m/s, 211° | 0 W/m² | - |
| 1777971207 | 11.67° C | 95% | 1010.8 hPa | 0 mm | 0 m/s | 0 W/m² | - |
| 1777970905 | 11.67° C | 95% | 1010.7 hPa | 0 mm | 0 m/s | 0 W/m² | - |
| 1777970603 | 11.67° C | 95% | 1010.8 hPa | 0 mm | 0.45 m/s, 228° | 0 W/m² | - |
| 1777970300 | 11.67° C | 94% | 1010.7 hPa | 0 mm | 0.89 m/s, 224° | 0 W/m² | - |
* Rain latest hour (hover to see other rain measurements)
** Current wind speed in m/s (hover to see current wind gust speed)